Location: Cerroniocc
(13.7547°S, 72.0222°W)
Time: 06:53:40
(UTC+00:00)

MOS 1 Rocket - Visible Passes

Search period start: 20 October 2020 00:00
Search period end: 30 October 2020 00:00
Orbit: 613 x 831 km, 97.4° (Epoch: 18 October)

Date Brightness Start Highest point End Pass type
(mag) Time Alt. Az. Time Alt. Az. Time Alt. Az.
21 Oct 6.1 00:09:51 10° NW 00:13:29 20° W 00:17:17 10° SW visible
21 Oct 3.8 23:19:09 10° N 23:24:13 78° W 23:29:35 10° SSW visible
23 Oct 6.1 00:09:34 10° NW 00:13:15 20° W 00:17:04 10° SW visible
23 Oct 3.8 23:18:52 10° N 23:23:58 77° W 23:29:22 10° SSW visible
25 Oct 6.1 00:09:18 10° NW 00:13:00 20° W 00:16:50 10° SW visible
25 Oct 3.9 23:18:35 10° N 23:23:44 75° W 23:29:10 10° SSW visible
27 Oct 6.2 00:09:03 10° NW 00:12:46 20° W 00:16:36 10° SW visible
27 Oct 3.9 23:18:17 10° N 23:23:30 74° WNW 23:28:57 10° SSW visible
29 Oct 6.2 00:08:48 10° NW 00:12:32 20° W 00:16:22 10° SW visible
29 Oct 3.9 23:18:01 10° N 23:23:17 73° W 23:28:44 10° SSW visible
